DW4433 Weather Reports


time (UTC)temp
C
wind
direction
speed
KPH
gust
KPH
rain 1hr
cm
rain 24hr
cm
rain mn
cm
humidity
%
barometer
mb
20260507060023 10 65 0.0 0.0 0.00 0.00 0.00 100 1015.4
20260507054523 10 317 0.0 0.0 0.00 0.00 0.00 100 1015.3
20260507053015 10 317 0.0 0.0 0.00 0.00 0.00 100 1015.1
20260507051511 9 323 0.0 0.0 0.00 0.00 0.00 100 1015.1
20260507050005 9 317 0.0 0.0 0.00 0.00 0.00 100 1015.1
20260507044601 9 317 0.0 0.0 0.00 0.00 0.00 100 1015.0
20260507043055 9 322 0.0 0.0 0.00 0.00 0.00 100 1014.9
20260507041551 9 324 0.0 0.0 0.00 0.00 0.00 100 1014.8
20260507040017 9 324 0.0 0.0 0.00 0.00 0.00 100 1014.8
20260507034516 8 326 0.0 0.0 0.00 0.00 0.00 100 1014.8
20260507033006 9 326 0.0 0.0 0.00 0.00 0.00 100 1014.7
20260507031502 9 326 0.0 0.0 0.00 0.00 0.00 100 1014.7
20260507030059 9 326 0.0 0.0 0.00 0.00 0.00 100 1014.7
20260507024608 10 326 0.0 0.0 0.00 0.00 0.00 100 1014.7
20260507023019 10 326 0.0 0.0 0.00 0.00 0.00 100 1014.6
20260507021516 10 326 0.0 0.0 0.00 0.00 0.00 100 1014.5
20260507020008 10 326 0.0 0.0 0.00 0.00 0.00 100 1014.4
20260507014508 10 326 0.0 0.0 0.00 0.00 0.00 100 1014.4
20260507013100 10 326 0.0 0.0 0.00 0.00 0.00 100 1014.5
20260507011555 10 326 0.0 0.0 0.00 0.00 0.00 100 1014.5
20260507010049 10 326 0.0 0.0 0.00 0.00 0.00 100 1014.5
20260507004546 10 326 0.0 0.0 0.00 0.00 0.00 100 1014.4
20260507003040 10 326 0.0 0.0 0.00 0.00 0.00 100 1014.4
20260507001535 10 326 0.0 0.0 0.00 0.00 0.00 100 1014.4
20260507000101 10 325 0.0 0.0 0.00 0.00 0.00 100 1014.4
20260506234602 10 326 0.0 0.0 0.00 0.00 0.00 100 1014.4
20260506233054 10 325 0.0 0.0 0.00 0.00 0.00 100 1014.4
20260506231555 10 326 0.0 0.0 0.00 0.00 0.00 100 1014.4
20260506230053 10 326 0.0 0.0 0.00 0.00 0.00 100 1014.4
20260506224539 10 326 0.0 0.0 0.00 0.00 0.00 100 1014.4
20260506223029 10 326 0.0 0.0 0.00 0.00 0.00 100 1014.3
20260506221511 10 326 0.0 0.0 0.00 0.00 0.00 100 1014.2
20260506220006 11 326 0.0 0.0 0.00 0.00 0.00 100 1014.2
20260506214532 11 326 0.0 0.0 0.00 0.00 0.00 100 1014.2
20260506213030 11 326 0.0 0.0 0.00 0.00 0.00 100 1014.2
20260506211531 11 326 0.0 0.0 0.00 0.00 0.00 100 1014.0
20260506210019 11 360 0.0 0.0 0.00 0.00 0.00 100 1013.9
20260506204513 11 360 0.0 0.0 0.00 0.00 0.00 100 1013.9
20260506203018 11 20 0.0 0.0 0.00 0.00 0.00 100 1013.9
20260506201610 11 21 0.0 0.0 0.00 0.00 0.00 100 1013.8
20260506200030 11 21 0.0 0.0 0.00 0.00 0.00 100 1013.6
20260506194529 11 22 0.0 0.0 0.00 0.00 0.00 100 1013.4
20260506193019 12 20 0.0 1.6 0.00 0.00 0.00 100 1013.3
20260506191515 12 53 0.0 1.6 0.00 0.00 0.00 2 1013.1
20260506190009 12 26 0.0 3.2 0.00 0.00 0.00 17 1013.1
20260506184506 13 38 0.0 8.0 0.00 0.00 0.00 30 1012.9
20260506183104 13 47 0.0 0.0 0.00 0.00 0.00 40 1012.7
20260506181554 13 47 0.0 0.0 0.00 0.00 0.00 45 1012.6
20260506180053 13 47 0.0 1.6 0.00 0.00 0.00 47 1012.4
20260506174547 13 40 0.0 1.6 0.00 0.00 0.00 46 1012.3
20260506173048 13 57 0.0 3.2 0.00 0.00 0.00 47 1012.3
20260506171539 13 44 0.0 0.0 0.00 0.00 0.00 49 1012.2
20260506170034 13 45 0.0 1.6 0.00 0.00 0.00 49 1012.0
20260506164526 14 51 0.0 0.0 0.00 0.00 0.00 49 1012.0
20260506163020 14 52 0.0 0.0 0.00 0.00 0.00 49 1012.1
20260506161516 15 52 0.0 0.0 0.00 0.00 0.00 50 1012.0
20260506160010 15 47 0.0 0.0 0.00 0.00 0.00 51 1012.0
20260506154506 15 48 0.0 0.0 0.00 0.00 0.00 51 1012.1
20260506153104 15 53 0.0 3.2 0.00 0.00 0.00 51 1012.1
20260506151556 15 38 0.0 0.0 0.00 0.00 0.00 51 1012.0
20260506150051 15 63 0.0 3.2 0.00 0.00 0.00 48 1012.0
20260506144559 16 29 0.0 0.0 0.00 0.00 0.00 47 1011.9
20260506143025 16 36 0.0 3.2 0.00 0.00 0.00 46 1011.9
20260506141510 17 243 0.0 0.0 0.00 0.00 0.00 42 1011.8
20260506140002 17 278 0.0 0.0 0.00 0.00 0.00 45 1011.9
20260506134557 16 273 0.0 1.6 0.00 0.00 0.00 46 1012.0
20260506133052 17 332 0.0 3.2 0.00 0.00 0.00 43 1012.0
20260506131549 17 63 0.0 3.2 0.00 0.00 0.00 45 1011.9
20260506130041 17 321 0.0 3.2 0.00 0.00 0.00 45 1012.0
20260506124537 17 11 0.0 0.0 0.00 0.00 0.00 47 1011.9
20260506123034 17 36 0.0 6.4 0.00 0.00 0.00 46 1011.9
20260506121528 17 27 0.0 3.2 0.00 0.00 0.00 46 1011.9
20260506120033 17 329 0.0 1.6 0.00 0.00 0.00 48 1012.0
20260506114517 17 242 0.0 1.6 0.00 0.00 0.00 47 1012.1
20260506113025 17 333 0.0 0.0 0.00 0.00 0.00 48 1012.1
20260506111508 17 355 0.0 1.6 0.00 0.00 0.00 50 1012.1
20260506110005 17 55 0.0 6.4 0.00 0.00 0.00 48 1012.0
20260506104600 17 64 0.0 0.0 0.00 0.00 0.00 49 1012.0
20260506103056 16 325 0.0 0.0 0.00 0.00 0.00 50 1012.1
20260506101549 16 250 0.0 3.2 0.00 0.00 0.00 49 1012.1
20260506100042 16 11 0.0 6.4 0.00 0.00 0.00 49 1012.1
20260506094537 16 45 0.0 1.6 0.00 0.00 0.00 48 1012.2
20260506093033 15 319 0.0 3.2 0.00 0.00 0.00 48 1012.2
20260506091531 15 256 0.0 0.0 0.00 0.00 0.00 39 1012.1
20260506090033 14 286 0.0 0.0 0.00 0.00 0.00 27 1012.1
20260506084520 14 287 0.0 0.0 0.00 0.00 0.00 18 1012.0
20260506083015 13 241 0.0 0.0 0.00 0.00 0.00 100 1011.9
20260506081508 11 280 0.0 0.0 0.00 0.00 0.00 100 1011.9
20260506073058 10 268 0.0 0.0 0.00 0.00 0.00 100 1012.0
20260506071548 10 282 0.0 0.0 0.00 0.00 0.00 100 1011.9
20260506061544 9 43 0.0 0.0 0.00 0.00 0.00 100 1011.8